Location: Sihaung
(22.8641°N, 94.0549°E)
Time: 15:43:23
(UTC+00:00)

CZ-4B R/B - Pass Details

Date: 03 March 2021
Orbit: 388 x 455 km, 97.6° (Epoch: 13 April)

Event Time Altitude Azimuth Distance (km) Brightness Sun altitude
Rises 22:51:51 0° 151° (SSE) 2,373 5.5 -17.2°
Reaches altitude 10° 22:53:59 10° 141° (SE) 1,498 4.6 -16.7°
Maximum altitude 22:56:52 31° 76° (ENE) 747 3.2 -16.0°
Drops below altitude 10° 22:59:42 10° 12° (NNE) 1,471 4.1 -15.3°
Sets 23:01:47 0° 2° (N) 2,321 5.0 -14.9°
